User: anonymous   Login
Location: Wilsall
(45.9940°N, 110.6590°W)
Time: 04:04:30
(UTC-06:00)
Language:

GP-B - Orbit

View from above orbital plane
View from above orbital plane
View from above satellite
View from above satellite

Ground track
Ground track

The orbit data is extracted from the following two-line orbital elements,

1 28230U 04014A   17116.92778295 +.00000198 +00000-0 +24909-4 0  9995
2 28230 089.8440 123.0162 0002667 073.9901 286.1616 14.78530498158727
Epoch (UTC): 26 April 2017 22:16:00
Eccentricity: 0.0002667
inclination: 89.8440°
perigee height: 632 km
apogee height: 636 km
right ascension of ascending node: 123.0162°
argument of perigee: 73.9901°
revolutions per day: 14.78530498
mean anomaly at epoch: 286.1616°
orbit number at epoch: 15872

The dashed part of the orbit path shows where the satellite is in the earth's shadow,  

DLR